Flag for Germany Weather past 2 weeks in Stade, Lower Saxony, Germany

Now
43 °F

Passing clouds.


Feels Like: 40 °F
Forecast: 37 / 47 °F
Wind: 5 mph from Southwest

Location: Hamburg-Finkenwerder

Current Time: Mar 5, 2015 at 10:11:40 PM

Latest Report: Mar 5, 2015 at 8:20 PM


Visibility: N/A

Pressure: 30.54 "Hg

Humidity: 81%

Dew point: 37 °F

Location of StadeLocation

Historic Weather in Stade — Graph

°F

Stade temperature yesterday

Maximum temperature yesterday: 43 °F (at 12:50 PM)
Minimum temperature yesterday: 32 °F (at 6:50 AM)
Average temperature yesterday: 39 °F

Past Weeks' High & Low Weather Summary

 TemperatureHumidityPressure
High46 °F (Feb 25, 3:20 PM)100% (Feb 19, 5:50 AM)30.54 "Hg (Feb 19, 5:50 AM)
Low32 °F (Feb 19, 5:50 AM)61% (Feb 28, 2:50 PM)29.24 "Hg (Feb 21, 10:50 AM)
Average40 °F88%29.87 "Hg
* Reported Feb 18 8:20 PM — Mar 5 8:20 PM, Stade, Weather by CustomWeather, © 2015

Note: Actual official high and low records may vary slightly from our data, if they occured in-between our weather recording intervals... More about our weather records

Advertising

Stade weather history for previous 24 hours

 ConditionsComfort  
Time TempWeatherWind HumidityBarometerVisibility
8:20 PM
Thu, Mar 5
43 °FPassing clouds.5 mph81%30.54 "HgN/A
7:50 PM43 °FPartly cloudy.5 mph81%30.54 "HgN/A
7:20 PM43 °FPartly cloudy.6 mph81%30.54 "HgN/A
6:50 PM43 °FClear.9 mph81%30.54 "Hg10 mi
6:20 PM43 °FClear.7 mph87%30.54 "Hg10 mi
5:50 PM43 °FPartly sunny.9 mph87%30.54 "HgN/A
5:20 PM43 °FPartly sunny.8 mph81%30.54 "HgN/A
4:50 PM45 °FPartly sunny.9 mph76%30.54 "HgN/A
4:20 PM45 °FBroken clouds.8 mph71%30.54 "HgN/A
3:50 PM45 °FPartly sunny.14 mph71%30.54 "HgN/A
3:20 PM45 °FBroken clouds.14 mph71%30.51 "HgN/A
2:50 PM45 °FScattered clouds.13 mph76%30.51 "HgN/A
2:20 PM45 °FScattered clouds.16 mph71%30.51 "HgN/A
1:50 PM45 °FScattered clouds.15 mph81%30.51 "HgN/A
1:20 PM45 °FScattered clouds.16 mph81%30.51 "HgN/A
12:50 PM45 °FScattered clouds.16 mph87%30.51 "HgN/A
12:20 PM45 °FScattered clouds.10 mph87%30.51 "HgN/A
11:50 AM43 °FScattered clouds.12 mph93%30.51 "HgN/A
11:20 AM43 °FScattered clouds.13 mph93%30.51 "HgN/A
10:50 AM43 °FScattered clouds.10 mph100%30.51 "HgN/A
10:20 AM41 °FBroken clouds.12 mph100%30.51 "HgN/A
9:50 AM41 °FPartly sunny.9 mph100%30.51 "HgN/A
9:20 AM39 °FPartly sunny.10 mph100%30.51 "HgN/A
8:50 AM39 °FPartly sunny.8 mph100%30.51 "HgN/A
8:20 AM37 °FPartly sunny.9 mph100%30.48 "HgN/A
7:50 AM36 °FPartly sunny.9 mph100%30.48 "HgN/A
7:20 AM36 °FScattered clouds.8 mph100%30.48 "HgN/A
6:50 AM36 °FPassing clouds.9 mph100%30.48 "HgN/A
6:20 AM36 °FPassing clouds.8 mph100%30.45 "HgN/A
5:50 AM37 °FPassing clouds.9 mph100%30.45 "HgN/A
Weather by CustomWeather, © 2015

See weather overviewHow to use our weather pages